[[{"header":{"parameterUnit":"m.s-1","parameterCategory":1,"la1":30.2992,"la2":30.254,"lo1":-89.0895,"lo2":-89.0443,"dy":0.0025,"dx":0.0025,"nx":19,"ny":19,"refTime":"2026-04-25T21:00:00:Z","depth":0,"parameterNumber":2,"parameterNumberName":"U-component_of_WINDS"},"data":[0,0,0,-3.4514,-3.4516,-3.4609,-3.4609,-3.4733,-3.4734,0,0,0,0,0,0,0,0,0,0,0,-3.449,-3.4491,-3.4514,-3.4516,-3.4609,-3.4609,-3.4733,-3.4734,0,0,0,0,0,0,0,0,0,0,0,-3.4489,-3.449,-3.4492,-3.4516,-3.4608,-3.4609,-3.4733,-3.4661,0,0,0,0,0,0,0,0,0,0,-3.457,-3.455,-3.449,-3.4492,-3.4517,-3.4608,-3.4609,-3.4657,-3.4665,-3.4694,0,-3.4719,0,-3.4729,-3.4743,-3.4743,0,0,0,-3.4514,-3.4544,-3.4566,-3.4492,-3.4518,-3.4608,-3.4566,-3.4662,-3.4671,-3.4704,-3.4721,-3.4726,-3.4731,-3.4744,-3.4744,-3.4918,-3.4918,0,0,-3.4508,-3.4508,-3.456,-3.4572,-3.4558,-3.4563,-3.4569,-3.4667,-3.4685,-3.4722,-3.4728,-3.4733,-3.4745,-3.4746,-3.4917,-3.4918,0,0,0,-3.4495,-3.4504,-3.4524,-3.4567,-3.4583,-3.4566,-3.4573,-3.4681,-3.4687,-3.473,-3.4735,-3.4745,-3.4747,-3.4916,-3.4917,-3.4962,0,0,0,-3.4492,-3.4497,-3.4522,-3.4523,-3.4582,-3.4633,-3.4585,-3.4681,-3.4692,-3.4734,-3.4745,-3.4748,-3.4915,-3.4916,-3.4959,-3.4983,0,0,0,-3.4483,-3.4496,-3.451,-3.4522,-3.4562,-3.4632,-3.4644,-3.4683,-3.4695,-3.4743,-3.4748,-3.4914,-3.4916,-3.4956,-3.4978,-3.5029,0,0,0,-3.4472,-3.4548,-3.4511,-3.4599,-3.4561,-3.4659,-3.4643,-3.4716,-3.4763,-3.4746,-3.4915,-3.4917,-3.4955,-3.4975,-3.5026,-3.5071,-3.509,0,0,-3.4568,-3.456,-3.4612,-3.4581,-3.4685,-3.4645,-3.4757,-3.48,-3.4805,-3.488,-3.4884,-3.496,-3.4978,-3.5028,-3.5198,-3.5213,0,0,0,-3.4642,-3.4679,-3.4707,-3.4752,-3.4788,-3.4821,-3.4848,-3.4864,-3.4928,-3.4843,-3.4992,-3.5003,-3.5033,-3.5054,-3.5067,-3.5092,-3.4927,-3.4927,-3.4927,-3.4776,-3.478,-3.4866,-3.4881,-3.4925,-3.4953,-3.499,-3.5017,-3.5006,-3.5042,-3.5063,-3.5166,-3.5192,-3.5201,-3.5228,-3.5089,-3.5089,-3.5089,-3.5089,-3.4917,-3.497,-3.4957,-3.5035,-3.5039,-3.5105,-3.5136,-3.5127,-3.519,-3.515,-3.5176,-3.5131,-3.5218,-3.5241,-3.5092,-3.5092,-3.5091,-3.5091,-3.5091,-3.5004,-3.503,-3.505,-3.5117,-3.5169,-3.5183,-3.5244,-3.5245,-3.5247,-3.5273,-3.5296,-3.5295,-3.5294,-3.5284,-3.5284,-3.5285,-3.5285,-3.5285,-3.5286,-3.5086,-3.5107,-3.5159,-3.5205,-3.5235,-3.5276,-3.5307,-3.5337,-3.537,-3.5366,-3.5366,-3.5353,-3.5226,-3.5193,-3.5291,-3.529,-3.5289,-3.5289,-3.5288,-3.5226,-3.5195,-3.5274,-3.5305,-3.5361,-3.5413,-3.5415,-3.5476,-3.5501,-3.5532,-3.5514,-3.542,-3.5411,-3.5401,-3.5374,-3.5513,-3.5513,-3.5513,-3.5513,-3.5299,-3.5295,-3.5378,-3.5427,-3.5475,-3.5486,-3.5576,-3.5603,-3.5624,-3.564,-3.5621,-3.5586,-3.5576,-3.5573,-3.5559,-3.5534,-3.571,-3.5711,-3.5711,-3.5385,-3.5387,-3.5463,-3.5484,-3.5529,-3.5567,-3.5653,-3.571,-3.5729,-3.5719,-3.5653,-3.5645,-3.5588,-3.557,-3.5556,-3.5534,-3.5488,0,0]},{"header":{"parameterUnit":"m.s-1","parameterCategory":1,"la1":30.2992,"la2":30.254,"lo1":-89.0895,"lo2":-89.0443,"dy":0.0025,"dx":0.0025,"nx":19,"ny":19,"refTime":"2026-04-25T21:00:00:Z","depth":0,"parameterNumber":3,"parameterNumberName":"V-component_of_WINDS"},"data":[0,0,0,2.6088,2.6088,2.6077,2.6077,2.6047,2.6046,0,0,0,0,0,0,0,0,0,0,0,2.6084,2.6083,2.6088,2.6088,2.6077,2.6077,2.6047,2.6046,0,0,0,0,0,0,0,0,0,0,0,2.6084,2.6083,2.6083,2.6088,2.6077,2.6077,2.6047,2.606,0,0,0,0,0,0,0,0,0,0,2.6073,2.6062,2.6084,2.6083,2.6087,2.6077,2.6077,2.6061,2.6059,2.6045,0,2.6033,0,2.604,2.6043,2.6043,0,0,0,2.6092,2.6064,2.6068,2.6083,2.6087,2.6077,2.6083,2.606,2.6058,2.6043,2.6033,2.6032,2.6039,2.6043,2.6043,2.5956,2.5955,0,0,2.6093,2.6077,2.607,2.6067,2.607,2.6083,2.6083,2.6059,2.6046,2.6033,2.6032,2.6039,2.6043,2.6043,2.5957,2.5956,0,0,0,2.6091,2.6077,2.6082,2.6068,2.6067,2.6083,2.6082,2.6047,2.605,2.6032,2.6038,2.6043,2.6042,2.5957,2.5956,2.5912,0,0,0,2.6092,2.6076,2.6082,2.6072,2.6067,2.6057,2.607,2.6052,2.605,2.6038,2.6043,2.6042,2.5958,2.5957,2.5915,2.5893,0,0,0,2.6087,2.6076,2.6072,2.6071,2.6067,2.6058,2.606,2.6052,2.6054,2.6043,2.6042,2.5959,2.5957,2.5917,2.5897,2.5867,0,0,0,2.6076,2.603,2.6071,2.6022,2.6067,2.6032,2.6061,2.6034,2.602,2.6042,2.5958,2.5956,2.5918,2.59,2.5869,2.5839,2.5825,0,0,2.6009,2.6021,2.5994,2.6031,2.5985,2.6035,2.5982,2.5982,2.5993,2.5967,2.5965,2.5914,2.5897,2.5868,2.5751,2.574,0,0,0,2.5967,2.5948,2.5939,2.5927,2.5929,2.5928,2.5939,2.5939,2.5919,2.5978,2.5895,2.5886,2.5869,2.5855,2.5845,2.5832,2.5949,2.595,2.595,2.5848,2.587,2.5826,2.5847,2.5834,2.5848,2.584,2.5842,2.5864,2.5844,2.5836,2.5764,2.5747,2.574,2.5726,2.5822,2.5822,2.5821,2.5821,2.5753,2.5728,2.5763,2.5734,2.5756,2.573,2.5741,2.5758,2.5737,2.577,2.5756,2.5792,2.5727,2.5716,2.5818,2.5819,2.5819,2.5819,2.582,2.5677,2.567,2.5674,2.5661,2.5647,2.5669,2.5648,2.5668,2.5686,2.5672,2.5667,2.5668,2.5671,2.5669,2.5668,2.5668,2.5668,2.5668,2.5668,2.5597,2.5604,2.5585,2.5586,2.5582,2.558,2.5595,2.5591,2.5591,2.5607,2.5607,2.5631,2.5717,2.5739,2.5664,2.5664,2.5665,2.5665,2.5666,2.5492,2.552,2.5492,2.5488,2.5492,2.5478,2.5506,2.5496,2.5496,2.5485,2.5513,2.5574,2.5586,2.5594,2.5612,2.5509,2.5509,2.5509,2.5509,2.5429,2.5439,2.5416,2.541,2.5406,2.5428,2.5395,2.5406,2.5422,2.5423,2.5441,2.5466,2.5473,2.5482,2.5492,2.5509,2.5382,2.5382,2.5382,2.5366,2.5377,2.5345,2.5365,2.537,2.5373,2.5342,2.5332,2.5355,2.5377,2.5424,2.543,2.5471,2.5483,2.5504,2.552,2.5551,0,0]}]]